Regional Weather Roundup
Issued by NWS

Home | Current Version | Previous Version | Graphics & Text | Print | Product List | Glossary On
Versions: 1 2 3 4 5 6 7 8 9 10 11 12 13 14 15 16 17 18 19 20 21 22 23 24 25 26 27
000
ASUS45 KBOU 220406
RWRCO

WEATHER ROUNDUP FOR COLORADO
NATIONAL WEATHER SERVICE DENVER/BOULDER CO
1000 PM MDT MON APR 21 2014

NOTE: "FAIR" INDICATES FEW OR NO CLOUDS BELOW 12000 FEET WITH NO
SIGNIFICANT WEATHER AND/OR OBSTRUCTIONS TO VISIBILITY.

COZ001>005-013-030-031-220500-
...NORTHWEST COLORADO...

CITY           SKY/WX    TMP DP  RH WIND       PRES   REMARKS
CRAIG          CLOUDY    47  32  56 CALM      30.14S
HAYDEN         CLOUDY    54  27  35 CALM      30.19S
MEEKER         CLOUDY    49  36  61 NE7       30.16R
MOUNT WERNER   CLOUDY    45  12  26 SW9       30.38S
STEAMBOAT SPGS CLOUDY    49  19  30 E5        30.18S
WALDEN         PTCLDY    36  27  69 SE8       30.24F
$$

COZ006>008-011-220500-
...WEST CENTRAL VALLEYS...

CITY           SKY/WX    TMP DP  RH WIND       PRES   REMARKS
GRAND JUNCTION CLOUDY    55  32  41 E5        30.07R
MONTROSE       MOCLDY    57  33  40 S9        30.16R
EAGLE          MOCLDY    48  28  46 E8        30.21S
RIFLE          CLOUDY    54  30  40 E6        30.12R
DELTA          NOT AVBL
NUCLA          NOT AVBL
$$

COZ017>023-064>068-220500-
...SOUTHWEST COLORADO...

CITY           SKY/WX    TMP DP  RH WIND       PRES   REMARKS
DURANGO        CLEAR     56  25  30 CALM      30.20R
CORTEZ         CLEAR     50  29  44 NE9       30.15S
PAGOSA SPRINGS CLEAR     49  21  33 NE3       30.27R
TELLURIDE      MOCLDY    46  25  42 E6        30.33S
WOLF CREEK PAS CLEAR     34  21  60 SW13G20   30.47R WCI  25
$$

COZ009-010-012-014-032>034-037-058>063-220500-
...CENTRAL COLORADO...

CITY           SKY/WX    TMP DP  RH WIND       PRES   REMARKS
ASPEN          CLOUDY    45  28  51 S7        30.26R
BUENA VISTA    MOCLDY    46  33  59 E5        30.30R
COPPER MTN     PTCLDY    37  19  48 SW8       30.46S
BERTHOUD PASS  FAIR      30  21  69 W18       30.47S WCI  18
COTTONWOOD PAS MOCLDY    45  23  42 CALM      30.37S
GUNNISON       MOCLDY    48  25  40 N8        30.29S
KREMMLING      MOCLDY    45  27  49 CALM      30.24S
LEADVILLE      MOCLDY    39  19  44 NE3       30.35S
MONARCH PASS   PTCLDY    36  18  48 NW10      30.56S
SALIDA         MOCLDY    51  33  49 SE12      30.35R
SUNLIGHT       CLOUDY    41  25  52 CALM      30.41S
WILKERSON PASS CLEAR     34  28  80 S6        30.45S WCI  29
$$

COZ069>075-220500-
...SAN LUIS VALLEY/SANGRE DE CRISTO MOUNTAINS...

CITY           SKY/WX    TMP DP  RH WIND       PRES   REMARKS
ALAMOSA        PTCLDY    48  36  63 SE9       30.24R
LA VETA PASS   MOCLDY    36  34  93 S9        30.39R
SAGUACHE       PTCLDY    46  27  46 NE3       30.28R
$$

COZ035-036-038>040-220500-
...NORTHERN COLORADO FRONT RANGE...

CITY           SKY/WX    TMP DP  RH WIND       PRES   REMARKS
DENVER INTL AP PTCLDY    49  33  54 S12       30.16S
DMNS CITY PARK   N/A     59  31  34 S16       30.14S
AURORA         PTCLDY    55  32  41 S18       30.16F
FRONT RANGE AP NOT AVBL
ERIE MUNI ARPT PTCLDY    52  41  65 S3        30.14S
BOULDER MUN AP PTCLDY    55  37  50 CALM      30.14S
CENTENNIAL     PTCLDY    56  31  38 S15       30.18R
BROOMFIELD     MOCLDY    55  39  54 VRB3      30.16F
FORT COLLINS   CLEAR     55  37  50 S6        30.14F
LONGMONT       NOT AVBL
$$

COZ041-046-047-076>085-087-088-220500-
...PIKES PEAK/PALMER DIVIDE AND SOUTHERN FOOTHILLS...

CITY           SKY/WX    TMP DP  RH WIND       PRES   REMARKS
COLO. SPRINGS  PTCLDY    52  30  43 S7        30.26R
A. F. ACADEMY  PTCLDY    51  31  47 SE6       30.25R
ELLICOTT       NOT AVBL
FALCON         PTCLDY    46  29  51 S3        30.29R
FORT CARSON    PTCLDY    51  33  50 SW7       30.23R
LIMON          PTCLDY    44  29  55 SE6       30.22R
MONUMENT HILL  PTCLDY    46  30  53 S12       30.25R
TRINIDAD       MOCLDY    53  44  71 SW6       30.26R
$$

COZ042>045-048>051-090-091-220500-
...NORTHEAST COLORADO...

CITY           SKY/WX    TMP DP  RH WIND       PRES   REMARKS
GREELEY ARPT   PTCLDY    52  34  50 SE12      30.14S
AKRON          PTCLDY    53  30  41 SE15      30.18R
BURLINGTON     PTCLDY    49  28  44 S12       30.20S
WRAY           CLEAR     55  30  37 E5        30.17S
STERLING       NOT AVBL
HOLYOKE        NOT AVBL
FORT MORGAN    NOT AVBL
$$

COZ086-089-092>099-220500-
...SOUTHEAST COLORADO...

CITY           SKY/WX    TMP DP  RH WIND       PRES   REMARKS
PUEBLO         PTCLDY    59  34  39 CALM      30.19R
LA JUNTA       PTCLDY    59  35  40 SE10      30.18R
LAMAR          PTCLDY    56  35  45 SE9       30.17S
SPRINGFIELD      N/A     51  41  68 E7        30.22R
$$



USA.gov is the U.S. government's official web portal to all federal, state and local government web resources and services.